QPF
0.00 0.00 0.00 0.00 0.00 0.00 0.00 0.01 0.01 0.00 0.00 0.00 0.00 0.00 0.00 0.00 0.00 0.01 0.01 0.01 0.02 0.02 0.02 0.02 0.02 0.03 0.03 0.03 0.02 0.02 0.02 0.02 0.03 0.03 0.03 0.03 0.03 0.02 0.02 0.04 0.03 0.02 0.02 0.01
0.01 0.00 0.00 0.00 0.00 0.00 0.00 0.00 0.00 0.00 0.00 0.00 0.00 0.00 0.00 0.00 0.00 0.01 0.01 0.01 0.01 0.01 0.02 0.02 0.02 0.03 0.03 0.03 0.03 0.03 0.03 0.03 0.03 0.03 0.03 0.03 0.02 0.02 0.03 0.04 0.03 0.02 0.02 0.02
0.02 0.00 0.01 0.01 0.00 0.00 0.00 0.00 0.00 0.00 0.00 0.00 0.00 0.00 0.00 0.00 0.01 0.01 0.01 0.01 0.01 0.01 0.01 0.02 0.02 0.02 0.03 0.03 0.03 0.03 0.03 0.03 0.03 0.03 0.03 0.02 0.02 0.02 0.02 0.04 0.04 0.03 0.02 0.02
0.04 0.02 0.02 0.01 0.00 0.00 0.00 0.00 0.01 0.00 0.00 0.00 0.00 0.00 0.00 0.01 0.01 0.01 0.01 0.01 0.01 0.01 0.01 0.01 0.02 0.02 0.02 0.03 0.03 0.03 0.03 0.03 0.03 0.03 0.02 0.02 0.01 0.01 0.02 0.02 0.02 0.02 0.02 0.02
0.05 0.03 0.01 0.00 0.00 0.00 0.00 0.00 0.01 0.00 0.00 0.00 0.00 0.00 0.00 0.01 0.01 0.01 0.01 0.01 0.01 0.01 0.02 0.02 0.02 0.02 0.02 0.02 0.03 0.03 0.03 0.03 0.02 0.02 0.02 0.02 0.01 0.01 0.01 0.01 0.02 0.02 0.02 0.02
0.06 0.04 0.01 0.00 0.00 0.00 0.00 0.00 0.00 0.00 0.00 0.00 0.00 0.00 0.00 0.00 0.00 0.00 0.00 0.01 0.01 0.01 0.01 0.02 0.02 0.02 0.02 0.02 0.02 0.02 0.02 0.02 0.02 0.02 0.02 0.02 0.02 0.01 0.01 0.01 0.02 0.02 0.02 0.02
0.05 0.04 0.01 0.00 0.00 0.00 0.00 0.00 0.00 0.00 0.00 0.00 0.01 0.01 0.01 0.01 0.00 0.00 0.00 0.00 0.00 0.01 0.02 0.02 0.02 0.02 0.02 0.02 0.02 0.02 0.02 0.02 0.02 0.02 0.02 0.02 0.02 0.02 0.02 0.02 0.02 0.02 0.02 0.02
0.04 0.05 0.02 0.00 0.00 0.00 0.00 0.00 0.00 0.00 0.00 0.00 0.00 0.00 0.01 0.01 0.00 0.00 0.00 0.00 0.00 0.01 0.02 0.02 0.02 0.02 0.01 0.02 0.02 0.02 0.02 0.02 0.02 0.02 0.02 0.02 0.02 0.02 0.02 0.02 0.02 0.02 0.02 0.02
0.02 0.02 0.01 0.01 0.00 0.01 0.01 0.01 0.00 0.00 0.00 0.00 0.00 0.00 0.00 0.01 0.00 0.00 0.00 0.00 0.01 0.01 0.02 0.02 0.03 0.02 0.02 0.01 0.02 0.02 0.02 0.02 0.02 0.02 0.02 0.02 0.02 0.02 0.02 0.02 0.02 0.02 0.02 0.02
0.01 0.01 0.00 0.00 0.00 0.00 0.01 0.01 0.01 0.01 0.00 0.00 0.01 0.00 0.00 0.01 0.01 0.01 0.01 0.01 0.01 0.01 0.02 0.02 0.02 0.02 0.02 0.01 0.01 0.02 0.01 0.01 0.02 0.02 0.02 0.02 0.02 0.01 0.01 0.01 0.01 0.02 0.02 0.02
0.02 0.01 0.01 0.01 0.00 0.00 0.01 0.01 0.01 0.01 0.00 0.01 0.01 0.01 0.01 0.01 0.01 0.01 0.01 0.01 0.01 0.01 0.02 0.02 0.02 0.02 0.02 0.01 0.01 0.01 0.01 0.02 0.02 0.02 0.02 0.01 0.01 0.01 0.01 0.01 0.01 0.02 0.02 0.02
0.02 0.02 0.02 0.01 0.01 0.01 0.01 0.01 0.01 0.01 0.00 0.00 0.01 0.01 0.01 0.01 0.01 0.01 0.01 0.01 0.01 0.01 0.02 0.02 0.02 0.02 0.02 0.02 0.02 0.01 0.01 0.01 0.01 0.01 0.01 0.01 0.01 0.01 0.02 0.01 0.01 0.02 0.02 0.02
0.02 0.02 0.01 0.01 0.01 0.01 0.01 0.01 0.01 0.01 0.01 0.01 0.01 0.01 0.01 0.01 0.01 0.01 0.01 0.01 0.01 0.01 0.02 0.02 0.02 0.02 0.02 0.01 0.02 0.02 0.02 0.01 0.01 0.01 0.01 0.01 0.01 0.01 0.01 0.01 0.01 0.02 0.02 0.01
0.02 0.02 0.02 0.01 0.01 0.01 0.00 0.01 0.01 0.01 0.01 0.01 0.01 0.01 0.01 0.01 0.00 0.01 0.01 0.01 0.01 0.01 0.02 0.02 0.02 0.02 0.02 0.02 0.02 0.02 0.02 0.02 0.01 0.01 0.01 0.01 0.01 0.01 0.01 0.01 0.01 0.01 0.02 0.02
0.01 0.01 0.01 0.01 0.01 0.01 0.01 0.01 0.01 0.01 0.01 0.01 0.01 0.01 0.00 0.00 0.00 0.00 0.01 0.01 0.01 0.01 0.01 0.02 0.02 0.02 0.02 0.02 0.02 0.01 0.01 0.01 0.01 0.01 0.01 0.01 0.01 0.01 0.01 0.01 0.01 0.01 0.01 0.01
0.00 0.00 0.00 0.00 0.00 0.00 0.00 0.01 0.01 0.01 0.01 0.01 0.01 0.00 0.00 0.00 0.00 0.00 0.00 0.01 0.01 0.01 0.01 0.02 0.02 0.02 0.01 0.01 0.01 0.01 0.01 0.01 0.01 0.01 0.01 0.01 0.01 0.01 0.01 0.01 0.01 0.01 0.01 0.01
0.00 0.00 0.01 0.01 0.01 0.00 0.00 0.00 0.00 0.01 0.01 0.01 0.00 0.00 0.00 0.00 0.00 0.00 0.00 0.01 0.01 0.01 0.01 0.01 0.02 0.02 0.02 0.01 0.01 0.01 0.01 0.01 0.01 0.01 0.01 0.01 0.01 0.01 0.01 0.01 0.01 0.01 0.01 0.02
0.01 0.01 0.01 0.01 0.01 0.01 0.00 0.01 0.01 0.01 0.01 0.01 0.00 0.00 0.00 0.00 0.00 0.00 0.00 0.01 0.01 0.01 0.01 0.02 0.02 0.02 0.02 0.01 0.01 0.01 0.01 0.01 0.01 0.01 0.01 0.01 0.01 0.01 0.01 0.01 0.01 0.01 0.01 0.01
0.01 0.01 0.01 0.01 0.01 0.01 0.01 0.01 0.01 0.01 0.01 0.01 0.00 0.00 0.00 0.00 0.00 0.00 0.00 0.01 0.01 0.01 0.01 0.02 0.03 0.02 0.02 0.01 0.01 0.01 0.01 0.01 0.01 0.01 0.01 0.01 0.01 0.01 0.01 0.01 0.01 0.01 0.01 0.02
0.01 0.00 0.00 0.01 0.01 0.01 0.01 0.01 0.01 0.01 0.01 0.01 0.00 0.00 0.00 0.00 0.00 0.00 0.00 0.00 0.01 0.01 0.01 0.02 0.02 0.02 0.02 0.02 0.02 0.01 0.01 0.01 0.01 0.01 0.01 0.01 0.01 0.01 0.01 0.01 0.01 0.01 0.02 0.02
0.01 0.00 0.00 0.01 0.01 0.01 0.01 0.01 0.01 0.01 0.01 0.01 0.00 0.00 0.00 0.00 0.00 0.00 0.00 0.01 0.01 0.01 0.01 0.02 0.02 0.02 0.02 0.02 0.02 0.02 0.01 0.01 0.01 0.01 0.01 0.01 0.01 0.01 0.01 0.01 0.01 0.01 0.02 0.02
0.00 0.00 0.01 0.01 0.01 0.01 0.01 0.01 0.01 0.01 0.01 0.01 0.01 0.00 0.00 0.00 0.00 0.00 0.00 0.01 0.01 0.01 0.01 0.01 0.02 0.02 0.02 0.02 0.02 0.02 0.01 0.01 0.01 0.01 0.01 0.01 0.01 0.01 0.01 0.01 0.01 0.01 0.01 0.01
0.00 0.00 0.00 0.01 0.01 0.01 0.01 0.01 0.01 0.01 0.01 0.01 0.00 0.00 0.00 0.00 0.00 0.00 0.00 0.00 0.01 0.01 0.01 0.01 0.02 0.02 0.02 0.02 0.01 0.01 0.01 0.01 0.01 0.01 0.01 0.01 0.01 0.01 0.01 0.01 0.01 0.01 0.01 0.01
0.00 0.00 0.00 0.00 0.00 0.01 0.01 0.01 0.01 0.01 0.01 0.00 0.00 0.00 0.00 0.00 0.00 0.00 0.00 0.01 0.01 0.01 0.01 0.01 0.02 0.02 0.02 0.01 0.01 0.01 0.01 0.01 0.01 0.01 0.01 0.01 0.01 0.01 0.01 0.01 0.01 0.01 0.01 0.01
0.00 0.00 0.00 0.00 0.00 0.01 0.01 0.01 0.01 0.01 0.01 0.01 0.01 0.01 0.00 0.00 0.00 0.00 0.01 0.01 0.01 0.01 0.01 0.01 0.01 0.01 0.01 0.01 0.01 0.01 0.01 0.01 0.01 0.01 0.01 0.01 0.01 0.01 0.01 0.01 0.01 0.01 0.01 0.01
0.00 0.00 0.00 0.00 0.01 0.01 0.01 0.01 0.01 0.01 0.01 0.01 0.01 0.01 0.01 0.01 0.00 0.01 0.01 0.01 0.01 0.01 0.01 0.01 0.01 0.01 0.01 0.01 0.01 0.01 0.01 0.01 0.01 0.01 0.01 0.01 0.01 0.01 0.01 0.01 0.01 0.01 0.01 0.01
0.00 0.00 0.00 0.01 0.01 0.01 0.01 0.01 0.01 0.01 0.01 0.01 0.01 0.01 0.01 0.01 0.01 0.01 0.01 0.01 0.01 0.01 0.01 0.01 0.01 0.01 0.01 0.01 0.01 0.01 0.01 0.01 0.01 0.01 0.01 0.01 0.01 0.01 0.01 0.01 0.01 0.01 0.01 0.01
MSLP
997.74 997.33 997.02 996.81 996.70 996.66 996.69 996.76 996.86 997.01 997.21 997.51 997.92 998.47 999.18 1000.02 1000.99 1002.03 1003.09 1004.13 1005.09 1005.94 1006.69 1007.33 1007.90 1008.42 1008.94 1009.48 1010.05 1010.67 1011.32 1011.98 1012.62 1013.23 1013.78 1014.26 1014.68 1015.03 1015.33 1015.59 1015.82 1016.03 1016.24 1016.44
997.77 997.31 996.92 996.61 996.38 996.23 996.17 996.17 996.24 996.40 996.67 997.05 997.58 998.25 999.08 1000.04 1001.10 1002.21 1003.33 1004.41 1005.41 1006.31 1007.10 1007.79 1008.41 1008.99 1009.56 1010.14 1010.76 1011.40 1012.07 1012.74 1013.39 1014.00 1014.54 1015.02 1015.42 1015.74 1016.01 1016.23 1016.42 1016.59 1016.76 1016.93
997.87 997.42 997.01 996.65 996.36 996.13 995.99 995.92 995.95 996.10 996.37 996.78 997.37 998.11 999.00 1000.03 1001.14 1002.31 1003.48 1004.61 1005.66 1006.62 1007.48 1008.24 1008.93 1009.57 1010.19 1010.82 1011.46 1012.12 1012.79 1013.45 1014.09 1014.68 1015.21 1015.67 1016.05 1016.36 1016.60 1016.79 1016.95 1017.09 1017.22 1017.35
998.10 997.69 997.31 996.96 996.64 996.37 996.16 996.03 996.01 996.10 996.34 996.75 997.33 998.09 999.00 1000.05 1001.20 1002.40 1003.61 1004.79 1005.90 1006.92 1007.85 1008.69 1009.45 1010.16 1010.83 1011.49 1012.14 1012.79 1013.44 1014.08 1014.69 1015.25 1015.76 1016.19 1016.56 1016.86 1017.09 1017.27 1017.41 1017.53 1017.63 1017.73
998.51 998.18 997.86 997.53 997.21 996.91 996.66 996.47 996.38 996.41 996.60 996.96 997.50 998.23 999.13 1000.17 1001.32 1002.53 1003.77 1004.99 1006.15 1007.24 1008.24 1009.14 1009.97 1010.73 1011.44 1012.11 1012.76 1013.39 1014.01 1014.60 1015.17 1015.70 1016.17 1016.60 1016.96 1017.26 1017.49 1017.68 1017.82 1017.92 1018.00 1018.08
999.15 998.90 998.64 998.35 998.03 997.72 997.42 997.18 997.02 996.99 997.10 997.40 997.89 998.57 999.43 1000.44 1001.56 1002.77 1004.02 1005.26 1006.46 1007.60 1008.65 1009.61 1010.49 1011.28 1012.01 1012.68 1013.31 1013.90 1014.47 1015.02 1015.53 1016.02 1016.48 1016.89 1017.25 1017.56 1017.81 1018.01 1018.16 1018.27 1018.34 1018.38
1000.02 999.84 999.62 999.36 999.05 998.72 998.39 998.09 997.87 997.77 997.83 998.06 998.48 999.11 999.91 1000.88 1001.98 1003.16 1004.40 1005.64 1006.86 1008.02 1009.10 1010.10 1011.00 1011.80 1012.53 1013.18 1013.78 1014.33 1014.84 1015.33 1015.80 1016.26 1016.69 1017.09 1017.46 1017.79 1018.06 1018.28 1018.45 1018.56 1018.62 1018.64
1001.09 1000.95 1000.76 1000.51 1000.20 999.84 999.48 999.14 998.88 998.73 998.72 998.90 999.27 999.84 1000.60 1001.52 1002.57 1003.72 1004.93 1006.16 1007.36 1008.52 1009.61 1010.60 1011.50 1012.30 1013.01 1013.62 1014.18 1014.68 1015.14 1015.58 1016.01 1016.42 1016.83 1017.23 1017.61 1017.95 1018.24 1018.48 1018.66 1018.77 1018.82 1018.81
1002.26 1002.15 1001.97 1001.72 1001.39 1001.02 1000.63 1000.27 999.97 999.79 999.76 999.90 1000.24 1000.77 1001.48 1002.35 1003.36 1004.46 1005.62 1006.81 1007.98 1009.11 1010.17 1011.14 1012.01 1012.78 1013.45 1014.03 1014.54 1014.99 1015.40 1015.79 1016.18 1016.56 1016.95 1017.33 1017.70 1018.05 1018.36 1018.60 1018.78 1018.88 1018.91 1018.87
1003.46 1003.35 1003.17 1002.91 1002.58 1002.19 1001.79 1001.42 1001.12 1000.93 1000.89 1001.02 1001.34 1001.85 1002.53 1003.36 1004.32 1005.36 1006.47 1007.59 1008.71 1009.78 1010.78 1011.71 1012.53 1013.26 1013.88 1014.42 1014.88 1015.28 1015.65 1016.00 1016.34 1016.69 1017.05 1017.42 1017.78 1018.11 1018.41 1018.64 1018.81 1018.89 1018.89 1018.82
1004.57 1004.47 1004.29 1004.02 1003.69 1003.31 1002.92 1002.56 1002.27 1002.10 1002.08 1002.22 1002.55 1003.05 1003.70 1004.50 1005.40 1006.39 1007.42 1008.47 1009.51 1010.50 1011.44 1012.29 1013.06 1013.73 1014.30 1014.79 1015.21 1015.57 1015.90 1016.21 1016.52 1016.83 1017.16 1017.50 1017.83 1018.14 1018.41 1018.61 1018.75 1018.80 1018.76 1018.65
1005.55 1005.45 1005.28 1005.02 1004.71 1004.35 1003.99 1003.67 1003.43 1003.30 1003.31 1003.49 1003.83 1004.32 1004.96 1005.72 1006.57 1007.48 1008.43 1009.39 1010.34 1011.24 1012.09 1012.86 1013.56 1014.17 1014.69 1015.14 1015.51 1015.84 1016.14 1016.42 1016.70 1016.98 1017.28 1017.58 1017.87 1018.14 1018.37 1018.53 1018.62 1018.63 1018.56 1018.41
1006.38 1006.30 1006.14 1005.91 1005.63 1005.31 1005.01 1004.75 1004.57 1004.50 1004.56 1004.77 1005.14 1005.63 1006.25 1006.96 1007.75 1008.59 1009.44 1010.30 1011.14 1011.94 1012.69 1013.38 1014.00 1014.54 1015.02 1015.43 1015.78 1016.08 1016.36 1016.62 1016.87 1017.13 1017.39 1017.65 1017.90 1018.13 1018.31 1018.43 1018.47 1018.44 1018.32 1018.13
1007.08 1007.02 1006.89 1006.71 1006.48 1006.23 1005.99 1005.80 1005.70 1005.69 1005.81 1006.06 1006.44 1006.93 1007.52 1008.18 1008.89 1009.64 1010.39 1011.14 1011.86 1012.56 1013.20 1013.80 1014.34 1014.83 1015.26 1015.63 1015.97 1016.26 1016.52 1016.77 1017.02 1017.25 1017.49 1017.72 1017.93 1018.11 1018.24 1018.31 1018.31 1018.24 1018.09 1017.87
1007.69 1007.66 1007.58 1007.45 1007.29 1007.11 1006.96 1006.85 1006.82 1006.88 1007.05 1007.32 1007.71 1008.18 1008.73 1009.33 1009.96 1010.60 1011.25 1011.88 1012.48 1013.06 1013.60 1014.11 1014.58 1015.01 1015.40 1015.75 1016.06 1016.35 1016.62 1016.87 1017.10 1017.33 1017.55 1017.75 1017.93 1018.07 1018.17 1018.20 1018.17 1018.06 1017.88 1017.64
1008.27 1008.28 1008.25 1008.19 1008.10 1008.00 1007.93 1007.90 1007.94 1008.06 1008.26 1008.55 1008.93 1009.37 1009.87 1010.39 1010.93 1011.47 1011.99 1012.50 1012.99 1013.45 1013.89 1014.31 1014.70 1015.08 1015.43 1015.76 1016.07 1016.36 1016.63 1016.89 1017.13 1017.36 1017.57 1017.75 1017.90 1018.01 1018.08 1018.08 1018.02 1017.89 1017.69 1017.44
1008.86 1008.91 1008.93 1008.94 1008.92 1008.91 1008.91 1008.95 1009.05 1009.21 1009.44 1009.74 1010.09 1010.49 1010.92 1011.36 1011.80 1012.23 1012.64 1013.02 1013.39 1013.74 1014.09 1014.42 1014.75 1015.07 1015.39 1015.70 1016.01 1016.30 1016.58 1016.85 1017.10 1017.32 1017.52 1017.69 1017.82 1017.91 1017.95 1017.93 1017.84 1017.70 1017.49 1017.25
1009.47 1009.56 1009.64 1009.71 1009.77 1009.83 1009.90 1010.00 1010.14 1010.33 1010.57 1010.86 1011.18 1011.53 1011.88 1012.24 1012.58 1012.90 1013.20 1013.47 1013.73 1013.98 1014.23 1014.48 1014.75 1015.02 1015.31 1015.60 1015.90 1016.20 1016.48 1016.75 1017.00 1017.23 1017.42 1017.57 1017.68 1017.74 1017.76 1017.71 1017.61 1017.46 1017.25 1017.01
1010.10 1010.24 1010.37 1010.50 1010.62 1010.74 1010.87 1011.02 1011.19 1011.39 1011.63 1011.89 1012.18 1012.47 1012.75 1013.02 1013.27 1013.49 1013.69 1013.86 1014.03 1014.19 1014.35 1014.54 1014.74 1014.97 1015.23 1015.50 1015.79 1016.08 1016.36 1016.63 1016.87 1017.08 1017.26 1017.38 1017.47 1017.50 1017.48 1017.41 1017.29 1017.13 1016.93 1016.70
1010.74 1010.92 1011.11 1011.29 1011.46 1011.63 1011.79 1011.96 1012.15 1012.36 1012.58 1012.81 1013.06 1013.29 1013.51 1013.71 1013.88 1014.02 1014.13 1014.22 1014.30 1014.38 1014.48 1014.61 1014.76 1014.95 1015.17 1015.42 1015.69 1015.96 1016.23 1016.48 1016.70 1016.89 1017.03 1017.13 1017.18 1017.17 1017.12 1017.02 1016.88 1016.71 1016.51 1016.29
1011.37 1011.60 1011.83 1012.05 1012.25 1012.44 1012.63 1012.81 1013.00 1013.19 1013.39 1013.59 1013.79 1013.98 1014.14 1014.27 1014.38 1014.45 1014.49 1014.52 1014.54 1014.56 1014.61 1014.68 1014.79 1014.94 1015.13 1015.35 1015.59 1015.84 1016.08 1016.31 1016.50 1016.65 1016.76 1016.81 1016.81 1016.77 1016.68 1016.55 1016.39 1016.21 1016.02 1015.82
1011.98 1012.25 1012.50 1012.75 1012.97 1013.17 1013.35 1013.52 1013.69 1013.86 1014.03 1014.19 1014.35 1014.48 1014.60 1014.69 1014.74 1014.76 1014.76 1014.73 1014.71 1014.69 1014.70 1014.73 1014.81 1014.93 1015.08 1015.27 1015.48 1015.70 1015.91 1016.10 1016.25 1016.36 1016.42 1016.43 1016.39 1016.31 1016.19 1016.04 1015.86 1015.68 1015.50 1015.32
1012.57 1012.86 1013.13 1013.37 1013.58 1013.76 1013.92 1014.07 1014.20 1014.33 1014.46 1014.58 1014.70 1014.79 1014.87 1014.91 1014.93 1014.92 1014.88 1014.83 1014.78 1014.73 1014.71 1014.72 1014.77 1014.86 1014.99 1015.14 1015.32 1015.51 1015.68 1015.83 1015.94 1016.02 1016.04 1016.01 1015.94 1015.82 1015.68 1015.52 1015.34 1015.17 1015.00 1014.85
1013.13 1013.42 1013.68 1013.90 1014.07 1014.22 1014.33 1014.43 1014.52 1014.60 1014.68 1014.76 1014.83 1014.88 1014.92 1014.94 1014.93 1014.89 1014.84 1014.78 1014.71 1014.65 1014.61 1014.61 1014.64 1014.71 1014.81 1014.94 1015.09 1015.24 1015.38 1015.50 1015.58 1015.62 1015.61 1015.56 1015.46 1015.34 1015.19 1015.04 1014.88 1014.73 1014.59 1014.47
1013.66 1013.93 1014.14 1014.31 1014.43 1014.51 1014.57 1014.61 1014.63 1014.66 1014.69 1014.71 1014.74 1014.76 1014.77 1014.76 1014.74 1014.69 1014.63 1014.57 1014.50 1014.44 1014.40 1014.39 1014.41 1014.46 1014.54 1014.65 1014.77 1014.90 1015.01 1015.10 1015.15 1015.18 1015.15 1015.09 1015.00 1014.89 1014.76 1014.62 1014.49 1014.38 1014.28 1014.21
1014.14 1014.34 1014.50 1014.60 1014.65 1014.66 1014.64 1014.60 1014.57 1014.53 1014.50 1014.48 1014.47 1014.46 1014.45 1014.42 1014.39 1014.34 1014.29 1014.23 1014.17 1014.12 1014.08 1014.07 1014.09 1014.14 1014.21 1014.30 1014.40 1014.50 1014.59 1014.66 1014.71 1014.72 1014.70 1014.65 1014.57 1014.48 1014.39 1014.29 1014.21 1014.14 1014.08 1014.05
1014.52 1014.65 1014.72 1014.74 1014.71 1014.64 1014.55 1014.45 1014.34 1014.25 1014.18 1014.11 1014.07 1014.03 1014.00 1013.97 1013.94 1013.90 1013.86 1013.81 1013.77 1013.74 1013.72 1013.72 1013.75 1013.79 1013.86 1013.94 1014.02 1014.11 1014.18 1014.24 1014.28 1014.29 1014.28 1014.25 1014.20 1014.14 1014.09 1014.04 1014.00 1013.98 1013.97 1013.98
Thickness
5424 5428 5423 5425 5426 5419 5414 5419 5420 5436 5439 5453 5451 5450 5448 5444 5441 5439 5438 5437 5435 5433 5430 5429 5428 5427 5427 5426 5425 5425 5424 5423 5423 5423 5422 5421 5420 5418 5418 5418 5418 5418 5419 5419
5417 5422 5417 5420 5425 5421 5419 5419 5419 5425 5437 5449 5445 5442 5440 5437 5435 5434 5433 5432 5430 5427 5425 5422 5421 5420 5419 5418 5417 5416 5415 5414 5414 5414 5413 5412 5410 5409 5408 5408 5408 5408 5409 5410
5411 5408 5411 5418 5429 5426 5423 5422 5422 5427 5443 5444 5439 5440 5437 5435 5432 5429 5427 5425 5423 5420 5418 5416 5414 5413 5412 5411 5409 5407 5406 5406 5405 5405 5404 5402 5401 5400 5399 5398 5397 5398 5399 5399
5394 5398 5407 5439 5434 5431 5428 5428 5423 5429 5436 5436 5435 5432 5429 5428 5425 5422 5420 5418 5416 5413 5411 5409 5407 5406 5405 5404 5401 5400 5399 5398 5397 5395 5394 5393 5391 5390 5389 5389 5388 5389 5389 5390
5383 5387 5405 5427 5428 5422 5420 5426 5426 5424 5429 5428 5424 5421 5422 5423 5419 5416 5414 5412 5409 5407 5404 5403 5401 5399 5397 5396 5394 5393 5392 5390 5389 5387 5386 5385 5383 5382 5381 5381 5381 5381 5382 5383
5378 5386 5402 5430 5425 5418 5417 5418 5427 5420 5420 5418 5414 5412 5419 5418 5413 5409 5407 5404 5402 5400 5398 5396 5395 5392 5390 5389 5387 5386 5385 5384 5382 5380 5378 5377 5376 5375 5374 5374 5374 5375 5376 5376
5378 5380 5397 5416 5412 5410 5410 5421 5422 5414 5412 5408 5406 5409 5409 5405 5403 5401 5398 5396 5394 5392 5391 5390 5387 5385 5383 5382 5381 5380 5379 5377 5375 5373 5371 5370 5369 5368 5368 5368 5368 5368 5369 5369
5371 5378 5401 5411 5401 5406 5413 5413 5409 5406 5404 5401 5399 5399 5397 5396 5394 5391 5389 5388 5386 5384 5383 5382 5380 5378 5377 5376 5375 5373 5372 5370 5369 5367 5365 5364 5362 5362 5361 5361 5361 5361 5362 5362
5387 5403 5409 5401 5402 5405 5403 5402 5402 5400 5397 5394 5391 5390 5389 5388 5385 5383 5381 5380 5378 5376 5375 5374 5373 5372 5371 5370 5368 5366 5365 5363 5361 5360 5358 5358 5357 5356 5355 5355 5355 5356 5356 5357
5378 5392 5397 5396 5395 5396 5395 5395 5396 5393 5390 5387 5384 5383 5380 5379 5377 5375 5374 5372 5370 5369 5367 5367 5366 5365 5365 5363 5361 5360 5358 5356 5355 5353 5352 5351 5351 5351 5350 5350 5350 5351 5352 5352
5374 5386 5388 5393 5391 5391 5390 5388 5386 5385 5383 5380 5377 5376 5373 5371 5370 5368 5367 5364 5362 5361 5361 5360 5360 5359 5358 5357 5355 5354 5352 5350 5349 5348 5346 5345 5346 5345 5346 5346 5347 5347 5347 5347
5387 5390 5385 5390 5390 5386 5382 5381 5380 5377 5375 5373 5371 5369 5367 5365 5363 5361 5359 5357 5355 5354 5353 5353 5352 5352 5351 5350 5349 5347 5346 5344 5343 5342 5341 5341 5340 5340 5341 5342 5343 5344 5343 5343
5385 5385 5381 5382 5381 5379 5377 5376 5373 5369 5367 5365 5364 5362 5361 5358 5357 5355 5353 5351 5349 5348 5347 5347 5346 5346 5345 5344 5343 5341 5340 5339 5338 5337 5336 5336 5335 5335 5335 5336 5338 5338 5338 5339
5375 5374 5374 5376 5374 5372 5370 5368 5365 5362 5360 5359 5358 5356 5354 5352 5350 5348 5347 5346 5344 5342 5341 5341 5341 5340 5340 5338 5337 5336 5335 5334 5334 5332 5331 5331 5330 5330 5330 5330 5330 5330 5332 5333
5370 5369 5369 5368 5365 5363 5361 5358 5356 5355 5353 5352 5351 5349 5348 5346 5344 5343 5341 5340 5339 5337 5336 5336 5336 5336 5335 5334 5333 5332 5331 5329 5329 5328 5327 5327 5326 5325 5325 5324 5324 5324 5325 5326
5365 5362 5360 5358 5358 5356 5353 5352 5350 5349 5347 5346 5344 5343 5341 5340 5338 5337 5335 5334 5333 5333 5333 5332 5332 5332 5331 5329 5328 5327 5326 5327 5325 5324 5323 5322 5321 5320 5320 5319 5318 5318 5318 5319
5357 5357 5355 5353 5352 5350 5348 5347 5346 5344 5342 5340 5338 5336 5334 5333 5331 5331 5330 5330 5329 5329 5329 5328 5328 5328 5327 5326 5324 5323 5322 5322 5321 5319 5318 5317 5316 5316 5314 5313 5313 5312 5312 5314
5353 5354 5352 5351 5349 5347 5345 5343 5341 5339 5336 5335 5332 5330 5328 5327 5327 5326 5326 5325 5325 5325 5325 5325 5325 5324 5323 5322 5321 5319 5318 5317 5316 5315 5314 5313 5312 5311 5310 5309 5308 5308 5309 5311
5348 5347 5346 5346 5344 5342 5340 5338 5336 5333 5331 5328 5326 5324 5323 5323 5322 5321 5320 5320 5320 5320 5321 5321 5323 5321 5320 5319 5318 5316 5315 5313 5312 5310 5309 5309 5307 5306 5305 5305 5305 5305 5306 5308
5344 5343 5342 5341 5340 5337 5335 5332 5329 5326 5324 5322 5320 5319 5318 5317 5317 5316 5315 5316 5317 5317 5317 5318 5318 5317 5316 5315 5314 5312 5311 5309 5308 5306 5305 5303 5302 5302 5302 5302 5302 5302 5303 5304
5340 5339 5337 5335 5333 5331 5329 5326 5323 5321 5319 5317 5316 5315 5314 5313 5312 5311 5311 5312 5314 5314 5314 5316 5315 5314 5313 5312 5311 5309 5307 5306 5304 5302 5301 5299 5299 5299 5299 5299 5299 5300 5301 5301
5333 5332 5331 5329 5327 5325 5323 5321 5319 5317 5315 5313 5311 5310 5309 5308 5307 5307 5308 5309 5310 5311 5311 5311 5311 5311 5310 5309 5307 5305 5304 5302 5300 5299 5297 5296 5296 5296 5296 5296 5297 5297 5298 5299
5327 5326 5325 5324 5322 5320 5318 5316 5314 5312 5310 5309 5308 5307 5306 5306 5305 5305 5306 5307 5307 5309 5308 5308 5309 5309 5309 5306 5304 5302 5300 5298 5297 5295 5294 5294 5294 5293 5294 5294 5295 5296 5297 5298
5321 5320 5318 5317 5315 5314 5313 5311 5309 5308 5306 5305 5305 5304 5303 5302 5303 5303 5304 5305 5306 5306 5305 5306 5307 5306 5305 5301 5300 5298 5296 5295 5293 5292 5292 5292 5291 5291 5292 5293 5293 5294 5295 5297
5315 5313 5312 5311 5311 5310 5309 5307 5305 5304 5303 5302 5301 5301 5301 5301 5301 5301 5301 5301 5302 5303 5302 5302 5303 5302 5299 5297 5296 5294 5293 5291 5291 5290 5290 5290 5290 5290 5291 5291 5292 5293 5295 5296
5309 5308 5308 5307 5307 5306 5305 5304 5303 5302 5301 5299 5299 5299 5298 5298 5298 5297 5297 5297 5297 5298 5297 5297 5296 5296 5295 5293 5292 5291 5290 5289 5289 5288 5288 5288 5288 5289 5290 5290 5291 5293 5294 5296
5304 5303 5302 5303 5303 5303 5302 5301 5300 5299 5299 5298 5297 5296 5296 5295 5294 5293 5293 5293 5293 5293 5292 5292 5292 5292 5291 5290 5289 5288 5287 5287 5287 5287 5287 5287 5287 5288 5288 5289 5290 5292 5294 5295